Погода в Губкине

Россия / Орловская область     52°20′20″N   36°38′53″E
темп.,
°C
ветер,
м/с
пор.,
м/с
влажн.,
%
обл.,
%
осадки,
мм/ч
давл.,
гПа
погр.,
м
19 апреля, пн
пн1900:00+6св3484100 0.0 101774
03:00+5вюв2592100 1.6 1017361
06:00+5всв3693100 2.0 1017403
09:00+8вюв467999 2.1 1017785
12:00+10вюв236497 0.2 10171180
15:00+12в225397 0.3 10151440
18:00+10в247292 2.7 1015332
21:00+7св3489100 5.1 1016119
20 апреля, вт
вт2000:00+7вюв348996 0.3 1015100
03:00+7всв3794100 0.4 1014230
06:00+7в5995100 0.3 1013472
09:00+7в61088100 0.4 1013801
12:00+8в7885100 0.3 10111035
15:00+7св71191100 1.2 1009655
18:00+6св71294100 2.0 1005648
21:00+3ссв61097100 7.3 1003538
21 апреля, ср
ср2100:00+2сз5897100 0.9 1001462
03:00+2зсз61197100 1.4 1002475
06:00+2з71397100 0.1 1004626
09:00+4з71187100 0.1 1008826
12:00+8з7116791 0.1 10091476
15:00+9зюз696998 0.5 10111114
18:00+9зюз586997 0.4 10121020
21:00+5юз36855 0.4 1015118
22 апреля, чт
чт2200:00+4юз379064 0.0 1015124
03:00+3ююз378920 0.0 1016116
06:00+4ю4118979 0.0 1017241
09:00+8ююз587899 0.6 1017415
12:00+9ююз48798 0.2 1018457
15:00+14юз675790 1.0 10171561
18:00+13ююз586663 0.9 1018465
21:00+9ю37855 0.9 1019101
23 апреля, пт
пт2300:00+8ю498731 0.0 1019142
03:00+7ю49926 0.1 1019185
06:00+7ю4119212 0.0 1019220
09:00+12ююз6117024 0.0 1018642
12:00+15ююз7105412 0.9 10171650
15:00+17ю794668 1.1 10162481
18:00+14ююз7116364 0.4 1015755
21:00+10ю4127899 0.7 1015280